SHENZHOU-15 (SZ-15)

Last updated on Sat Jun 03 2023 00:02:07 GMT+0000 (Coordinated Universal Time)

1 54379U 22162A 23153.50364300 .00024582 00000+0 30305-3 0 9990 2 54379 41.4740 245.1028 0003882 283.8731 76.1676 15.59611994119548
UTC large
Height (km)
Speed (km/s)
/
Latitude / Longitude
Inclination (degrees)
Orbital Period (minutes)
Azimuth
Elevation
Range (km)
Doppler Factor

Next 0 passes for location: London (51.5072 / 0.1276)

Sorry there are no passes over London.